{"data":{"norad_id":58084,"epoch":"2026-05-24T23:34:28.068384Z","epoch_age_seconds":66743,"freshness":"FRESH","line1":"1 58084U 23160K   26144.98226931  .00023647  00000+0  86540-3 0  9991","line2":"2 58084  43.0023  10.4394 0001418 258.0036 102.0657 15.27606298144576","mean_motion":15.27606298,"eccentricity":0.0001418,"inclination_deg":43.0023,"raan_deg":10.4394,"arg_perigee_deg":258.0036,"mean_anomaly_deg":102.0657,"bstar":0.0008654,"rev_number":14457,"period_min":94.265125895678,"perigee_km":481.99744647424,"apogee_km":483.94325651912,"semimajor_km":6861.1073514967,"source":"CELESTRAK","updated_at":"2026-05-25T13:38:18.522706Z"}}